[[{"header":{"parameterUnit":"m.s-1","parameterCategory":1,"la1":30.2991,"la2":30.254,"lo1":-89.0895,"lo2":-89.0444,"dy":0.0017,"dx":0.0017,"nx":28,"ny":28,"refTime":"2024-10-01T21:00:00:Z","depth":0,"parameterNumber":2,"parameterNumberName":"U-component_of_WINDS"},"data":[0,0,0,0,0,0,0,0,0,0,0,0,0,0,0,0,0,0,0,0,0,0,0,0,0,0,0,0,0,0,0,0,0,0,0,0,0,0,0,0,0,0,0,0,0,0,0,0,0,0,0,0,0,0,0,0,0,0,-0.085,-0.085,0,-0.0852,-0.0852,-0.0852,-0.0852,-0.0852,-0.0852,-0.0852,-0.0855,-0.0855,-0.0855,0,0,0,0,0,0,0,0,0,0,0,0,0,-0.0846,-0.0846,-0.085,-0.085,-0.085,-0.0852,-0.0852,-0.0852,-0.0852,-0.0852,-0.0852,-0.0852,-0.0855,-0.0855,-0.0855,0,0,0,0,0,0,0,0,0,0,0,0,0,-0.0848,-0.0846,-0.085,-0.085,-0.085,-0.0852,-0.0852,-0.0852,-0.0852,-0.0852,-0.0852,-0.0852,-0.0855,-0.0855,-0.0855,-0.0857,0,0,-0.0856,-0.0856,0,0,0,0,0,0,0,0,-0.0848,-0.0848,-0.085,-0.085,-0.085,-0.0852,-0.0852,-0.0854,-0.0852,-0.0851,-0.0852,-0.0852,-0.0854,-0.0854,-0.0855,-0.0857,-0.0857,-0.0856,-0.0856,-0.0856,-0.0856,0,0,0,0,0,0,0,-0.0848,-0.0848,-0.0851,-0.085,-0.085,-0.085,-0.085,-0.0852,-0.0853,-0.0852,-0.0852,-0.0852,-0.0854,-0.0855,-0.0855,-0.0857,-0.0856,-0.0856,-0.0856,-0.0856,-0.0859,-0.0859,0,0,0,0,0,0,-0.0848,-0.0848,-0.0851,-0.0851,-0.0849,-0.085,-0.0851,-0.0851,-0.0853,-0.0853,-0.0852,-0.0852,-0.0854,-0.0855,-0.0855,-0.0856,-0.0856,-0.0856,-0.0856,-0.0859,-0.0859,-0.0859,0,0,0,0,0,0,-0.0848,-0.0848,-0.0851,-0.0849,-0.085,-0.085,-0.0851,-0.0851,-0.0852,-0.0853,-0.0853,-0.0852,-0.0854,-0.0855,-0.0856,-0.0856,-0.0856,-0.0856,-0.0859,-0.0859,-0.0859,-0.0858,0,0,0,0,0,0,-0.0847,-0.0848,-0.0849,-0.0849,-0.085,-0.0852,-0.0851,-0.0851,-0.0852,-0.0852,-0.0853,-0.0854,-0.0854,-0.0856,-0.0856,-0.0856,-0.0856,-0.0859,-0.0859,-0.0859,-0.0858,-0.0858,-0.0858,0,0,0,0,0,-0.0847,-0.0849,-0.0849,-0.0849,-0.0851,-0.0852,-0.0852,-0.0852,-0.0852,-0.0853,-0.0853,-0.0854,-0.0856,-0.0856,-0.0856,-0.0856,-0.0859,-0.0859,-0.0859,-0.0858,-0.0858,-0.0858,0,0,0,0,0,0,-0.0849,-0.0849,-0.0849,-0.0851,-0.0851,-0.0852,-0.0853,-0.0852,-0.0853,-0.0853,-0.0854,-0.0854,-0.0855,-0.0856,-0.0856,-0.0857,-0.0857,-0.0857,-0.0857,-0.0856,-0.0856,-0.0856,-0.0857,0,0,0,0,0,-0.0849,-0.085,-0.085,-0.0852,-0.0852,-0.0852,-0.0852,-0.0852,-0.0853,-0.0853,-0.0854,-0.0855,-0.0855,-0.0856,-0.0857,-0.0858,-0.0858,-0.0858,-0.0858,-0.0858,-0.0858,-0.0857,-0.0857,-0.0859,-0.0859,-0.0859,0,0,-0.0851,-0.0851,-0.0851,-0.0852,-0.0852,-0.0853,-0.0852,-0.0853,-0.0853,-0.0854,-0.0854,-0.0855,-0.0856,-0.0856,-0.0857,-0.0857,-0.0857,-0.0858,-0.0858,-0.0858,-0.0857,-0.0857,-0.0857,-0.0859,-0.0859,-0.0859,0,0,-0.0853,-0.0853,-0.0854,-0.0854,-0.0854,-0.0854,-0.0854,-0.0854,-0.0854,-0.0855,-0.0854,-0.0855,-0.0856,-0.0856,-0.0856,-0.0856,-0.0857,-0.0857,-0.0856,-0.0856,-0.0855,-0.0855,-0.0854,-0.0854,-0.0857,-0.0857,-0.0857,0,-0.0855,-0.0855,-0.0855,-0.0855,-0.0855,-0.0854,-0.0854,-0.0854,-0.0855,-0.0855,-0.0855,-0.0855,-0.0856,-0.0856,-0.0856,-0.0856,-0.0856,-0.0857,-0.0855,-0.0855,-0.0855,-0.0854,-0.0854,-0.0857,-0.0857,-0.0857,-0.0857,0,-0.0857,-0.0857,-0.0857,-0.0857,-0.0857,-0.0857,-0.0856,-0.0856,-0.0855,-0.0855,-0.0855,-0.0855,-0.0855,-0.0855,-0.0856,-0.0855,-0.0855,-0.0855,-0.0856,-0.0855,-0.0854,-0.0854,-0.0857,-0.0857,-0.0857,-0.0857,0,0,-0.0862,-0.0859,-0.0859,-0.0858,-0.0857,-0.0857,-0.0857,-0.0856,-0.0856,-0.0856,-0.0855,-0.0855,-0.0855,-0.0855,-0.0855,-0.0854,-0.0853,-0.0854,-0.0854,-0.0853,-0.0851,-0.085,-0.085,-0.0853,-0.0853,-0.0853,-0.085,0,-0.0863,-0.0862,-0.0861,-0.0861,-0.086,-0.0858,-0.0858,-0.0857,-0.0856,-0.0856,-0.0855,-0.0855,-0.0855,-0.0854,-0.0854,-0.0853,-0.0852,-0.0853,-0.0852,-0.0852,-0.0851,-0.085,-0.085,-0.0848,-0.085,-0.085,-0.085,0,-0.0866,-0.0864,-0.0863,-0.0861,-0.086,-0.086,-0.0858,-0.0858,-0.0856,-0.0856,-0.0855,-0.0854,-0.0853,-0.0853,-0.0852,-0.0852,-0.0851,-0.0851,-0.0851,-0.0851,-0.0851,-0.0849,-0.0847,-0.0847,-0.085,-0.085,-0.085,0,-0.0868,-0.0866,-0.0865,-0.0864,-0.0861,-0.0861,-0.086,-0.0858,-0.0857,-0.0856,-0.0855,-0.0854,-0.0853,-0.0852,-0.085,-0.0851,-0.0848,-0.0849,-0.0847,-0.0847,-0.0847,-0.0847,-0.0845,-0.0847,-0.0847,-0.0847,-0.0847,0,-0.087,-0.087,-0.0866,-0.0865,-0.0864,-0.0862,-0.0861,-0.086,-0.0858,-0.0856,-0.0855,-0.0854,-0.0852,-0.0851,-0.085,-0.0848,-0.0848,-0.0847,-0.0847,-0.0847,-0.0847,-0.0846,-0.0846,-0.0847,-0.0847,-0.0847,-0.0847,0,-0.0873,-0.0871,-0.0869,-0.0866,-0.0865,-0.0864,-0.0861,-0.086,-0.0858,-0.0857,-0.0856,-0.0854,-0.0852,-0.085,-0.0848,-0.0847,-0.0844,-0.0845,-0.0845,-0.0845,-0.0843,-0.0843,-0.084,-0.0839,-0.0842,-0.0842,-0.0842,0,-0.0875,-0.0874,-0.087,-0.0868,-0.0867,-0.0865,-0.0863,-0.0861,-0.0859,-0.0856,-0.0855,-0.0853,-0.0851,-0.0847,-0.0846,-0.0843,-0.0843,-0.0842,-0.0843,-0.0842,-0.0842,-0.0842,-0.0841,-0.0842,-0.0842,-0.0842,-0.0842,0,-0.0877,-0.0875,-0.0873,-0.087,-0.0868,-0.0865,-0.0863,-0.0862,-0.0859,-0.0857,-0.0854,-0.0853,-0.0849,-0.0846,-0.0843,-0.0842,-0.0841,-0.0841,-0.0841,-0.0841,-0.0841,-0.084,-0.0844,-0.0842,-0.0842,-0.0842,-0.0842,-0.0842,-0.0879,-0.0877,-0.0874,-0.0871,-0.0868,-0.0866,-0.0864,-0.0861,-0.0859,-0.0855,-0.0854,-0.0851,-0.0848,-0.0843,-0.0842,-0.0839,-0.0839,-0.0839,-0.0838,-0.0838,-0.0838,-0.0841,-0.0839,-0.0839,-0.0839,-0.0839,-0.0839,0,-0.088,-0.0878,-0.0875,-0.0871,-0.0868,-0.0866,-0.0863,-0.0861,-0.0858,-0.0855,-0.0852,-0.0848,-0.0845,-0.0842,-0.0838,-0.0837,-0.0836,-0.0836,-0.0836,-0.0835,-0.0838,-0.0839,-0.0836,-0.0836,-0.0836,-0.0836,-0.0836,-0.0836,-0.0881,-0.0878,-0.0876,-0.0871,-0.0868,-0.0864,-0.0862,-0.0859,-0.0857,-0.0852,-0.0849,-0.0847,-0.0843,-0.0839,-0.0836,-0.0835,-0.0833,-0.0833,-0.0832,-0.0835,-0.0835,-0.0836,-0.0836,-0.0833,-0.0833,-0.0829,-0.0829,-0.0829]},{"header":{"parameterUnit":"m.s-1","parameterCategory":1,"la1":30.2991,"la2":30.254,"lo1":-89.0895,"lo2":-89.0444,"dy":0.0017,"dx":0.0017,"nx":28,"ny":28,"refTime":"2024-10-01T21:00:00:Z","depth":0,"parameterNumber":3,"parameterNumberName":"V-component_of_WINDS"},"data":[0,0,0,0,0,0,0,0,0,0,0,0,0,0,0,0,0,0,0,0,0,0,0,0,0,0,0,0,0,0,0,0,0,0,0,0,0,0,0,0,0,0,0,0,0,0,0,0,0,0,0,0,0,0,0,0,0,0,-2.2847,-2.2847,0,-2.2907,-2.2908,-2.2908,-2.2915,-2.2914,-2.2913,-2.2913,-2.2973,-2.2975,-2.2977,0,0,0,0,0,0,0,0,0,0,0,0,0,-2.2736,-2.2738,-2.2846,-2.2847,-2.2848,-2.2907,-2.2908,-2.2908,-2.2915,-2.2914,-2.2913,-2.2912,-2.2972,-2.2974,-2.2977,0,0,0,0,0,0,0,0,0,0,0,0,0,-2.2789,-2.2739,-2.2846,-2.2858,-2.286,-2.2907,-2.2908,-2.2909,-2.2915,-2.2914,-2.2913,-2.2912,-2.2971,-2.2974,-2.2977,-2.3016,0,0,-2.2987,-2.2989,0,0,0,0,0,0,0,0,-2.2786,-2.2793,-2.2856,-2.2858,-2.286,-2.2902,-2.2891,-2.2944,-2.2915,-2.2894,-2.2913,-2.2912,-2.295,-2.2955,-2.2968,-2.3018,-2.3021,-2.2988,-2.299,-2.2991,-2.2992,0,0,0,0,0,0,0,-2.2782,-2.279,-2.287,-2.2857,-2.2859,-2.286,-2.2867,-2.2901,-2.2926,-2.2896,-2.2896,-2.2903,-2.2951,-2.2965,-2.2969,-2.3022,-2.2987,-2.299,-2.2992,-2.2994,-2.3108,-2.3109,0,0,0,0,0,0,-2.2776,-2.2787,-2.2868,-2.2872,-2.282,-2.2863,-2.287,-2.2889,-2.2926,-2.2931,-2.2904,-2.2904,-2.296,-2.2966,-2.2972,-2.3019,-2.2991,-2.2994,-2.2996,-2.3107,-2.3108,-2.3109,0,0,0,0,0,0,-2.2774,-2.2784,-2.2866,-2.283,-2.2841,-2.2866,-2.2887,-2.2891,-2.2905,-2.2932,-2.2937,-2.2914,-2.2959,-2.2967,-2.3005,-2.3021,-2.2995,-2.2998,-2.3106,-2.3107,-2.3109,-2.3115,0,0,0,0,0,0,-2.2771,-2.2783,-2.2798,-2.283,-2.2842,-2.2899,-2.2888,-2.2893,-2.2911,-2.2911,-2.2943,-2.2947,-2.2959,-2.3,-2.3008,-2.3025,-2.3001,-2.3104,-2.3106,-2.3108,-2.3113,-2.3116,-2.3119,0,0,0,0,0,-2.2767,-2.2796,-2.2798,-2.2808,-2.2862,-2.2899,-2.2906,-2.292,-2.2912,-2.2927,-2.2945,-2.2946,-2.3019,-2.3004,-2.3013,-2.3031,-2.3103,-2.3106,-2.3108,-2.3112,-2.3116,-2.3119,0,0,0,0,0,0,-2.2763,-2.28,-2.2803,-2.2844,-2.2869,-2.29,-2.292,-2.2924,-2.295,-2.2949,-2.2965,-2.2972,-2.3009,-2.3024,-2.3007,-2.3071,-2.306,-2.3064,-2.306,-2.3064,-2.3066,-2.3062,-2.3004,0,0,0,0,0,-2.2768,-2.2796,-2.2827,-2.2859,-2.2872,-2.2894,-2.2911,-2.292,-2.2945,-2.2956,-2.2976,-2.3001,-2.3029,-2.3047,-2.3075,-2.3116,-2.3123,-2.3133,-2.3136,-2.3138,-2.3141,-2.3165,-2.317,-2.3117,-2.3117,-2.3117,0,0,-2.2776,-2.28,-2.2816,-2.2859,-2.288,-2.2908,-2.2902,-2.2933,-2.2954,-2.296,-2.2997,-2.3013,-2.3042,-2.3082,-2.31,-2.3095,-2.3158,-2.3141,-2.3143,-2.3145,-2.3168,-2.3173,-2.3177,-2.3119,-2.3119,-2.3119,0,0,-2.2806,-2.2827,-2.2857,-2.2878,-2.2909,-2.2924,-2.2931,-2.2963,-2.2974,-2.3012,-2.3017,-2.3043,-2.3092,-2.3112,-2.3129,-2.3169,-2.3171,-2.3177,-2.3192,-2.3215,-2.3219,-2.3223,-2.3237,-2.3242,-2.3181,-2.3181,-2.3181,0,-2.2812,-2.2856,-2.2872,-2.2903,-2.2921,-2.293,-2.296,-2.298,-2.3018,-2.303,-2.3025,-2.3087,-2.3107,-2.3152,-2.3162,-2.3175,-2.3184,-2.3173,-2.3218,-2.3222,-2.3225,-2.3239,-2.3245,-2.3181,-2.3181,-2.3181,-2.3181,0,-2.2863,-2.2893,-2.2914,-2.2952,-2.2973,-2.3003,-2.3024,-2.3043,-2.3051,-2.3066,-2.3105,-2.313,-2.3163,-2.3174,-2.3181,-2.3221,-2.3217,-2.3215,-2.3204,-2.3231,-2.3244,-2.3249,-2.3182,-2.3182,-2.3182,-2.3182,0,0,-2.289,-2.2938,-2.2945,-2.2963,-2.2999,-2.3023,-2.3054,-2.3087,-2.3104,-2.3131,-2.3157,-2.3199,-2.3197,-2.3216,-2.3226,-2.3246,-2.3277,-2.3241,-2.3242,-2.3247,-2.3322,-2.3324,-2.333,-2.3279,-2.328,-2.3281,-2.332,0,-2.2924,-2.298,-2.2996,-2.3044,-2.3072,-2.3082,-2.3109,-2.3134,-2.315,-2.3176,-2.3193,-2.3223,-2.3218,-2.323,-2.325,-2.3269,-2.3292,-2.3266,-2.3303,-2.3305,-2.3295,-2.3337,-2.3338,-2.3373,-2.3325,-2.3326,-2.3327,0,-2.297,-2.2999,-2.305,-2.3084,-2.3096,-2.312,-2.3153,-2.3178,-2.3207,-2.3217,-2.3239,-2.3248,-2.3281,-2.3269,-2.3315,-2.3297,-2.3314,-2.3326,-2.3327,-2.3331,-2.3317,-2.3341,-2.3385,-2.339,-2.3335,-2.3334,-2.3334,0,-2.2985,-2.3037,-2.3074,-2.3089,-2.3129,-2.3146,-2.3164,-2.3192,-2.3211,-2.324,-2.3253,-2.3284,-2.3302,-2.3326,-2.3343,-2.3333,-2.3388,-2.3377,-2.3397,-2.3396,-2.3407,-2.3406,-2.3454,-2.3419,-2.3418,-2.3418,-2.3418,0,-2.3021,-2.3052,-2.3082,-2.3104,-2.3139,-2.3158,-2.3191,-2.3209,-2.3235,-2.3261,-2.3271,-2.3295,-2.3317,-2.3344,-2.3358,-2.3394,-2.3402,-2.3411,-2.3414,-2.3409,-2.3408,-2.342,-2.3417,-2.342,-2.342,-2.3419,-2.3419,0,-2.3043,-2.3064,-2.3106,-2.3141,-2.3151,-2.3175,-2.3205,-2.3227,-2.3244,-2.3278,-2.3287,-2.3313,-2.3346,-2.3366,-2.3407,-2.3416,-2.3456,-2.3459,-2.3447,-2.3448,-2.3466,-2.3464,-2.3523,-2.3532,-2.3491,-2.3491,-2.3491,0,-2.3064,-2.3088,-2.3126,-2.3145,-2.3163,-2.3193,-2.3214,-2.3234,-2.3254,-2.329,-2.3309,-2.3343,-2.3371,-2.3423,-2.3446,-2.3478,-2.3481,-2.3499,-2.3485,-2.3481,-2.3481,-2.3479,-2.3481,-2.3501,-2.3501,-2.3502,-2.3502,0,-2.3099,-2.3109,-2.3138,-2.3172,-2.3196,-2.3224,-2.3251,-2.3266,-2.329,-2.3313,-2.3347,-2.3369,-2.3413,-2.3446,-2.3481,-2.3499,-2.3504,-2.3506,-2.3513,-2.3508,-2.35,-2.3504,-2.3452,-2.3504,-2.3504,-2.3504,-2.3504,-2.3504,-2.3121,-2.3143,-2.3174,-2.3207,-2.323,-2.3255,-2.3278,-2.3299,-2.3328,-2.3366,-2.3376,-2.3412,-2.3441,-2.3489,-2.3507,-2.3536,-2.3533,-2.3542,-2.3544,-2.3546,-2.3546,-2.3496,-2.3542,-2.3542,-2.3542,-2.3542,-2.3542,0,-2.3156,-2.3177,-2.3207,-2.3245,-2.3271,-2.3276,-2.3307,-2.3328,-2.336,-2.3388,-2.3416,-2.3456,-2.3489,-2.3515,-2.355,-2.3568,-2.3571,-2.3576,-2.3574,-2.3578,-2.3547,-2.3538,-2.3572,-2.3572,-2.3572,-2.3572,-2.3572,-2.3572,-2.3177,-2.3215,-2.3229,-2.3279,-2.3299,-2.3335,-2.3353,-2.3377,-2.3399,-2.3444,-2.3472,-2.3489,-2.3516,-2.3553,-2.3584,-2.3591,-2.3602,-2.3607,-2.3614,-2.3584,-2.358,-2.3577,-2.3569,-2.3609,-2.3609,-2.3643,-2.3643,-2.3643]}]]